{"data":{"norad_id":66916,"intl_designator":"2025-285B","name":"HULIANWANG DIGUI-106","alt_names":[],"object_type":"PAYLOAD","status":"ACTIVE","operator":null,"country":"PRC","launch_date":"2025-12-06","launch_site_code":"WSC","launch_vehicle":null,"mission":null,"orbit_class":"UNKNOWN","rcs_meters":null,"size_class":null,"mass_kg":null,"dimensions":null,"purposes":[],"wikipedia_slug":null,"has_3d_model":false,"image_url":null,"decayed_at":null,"tle_current":{"epoch":"2026-05-25T03:54:16.708032Z","epoch_age_seconds":64484,"freshness":"FRESH","line1":"1 66916U 25285B   26145.16269338 -.00000109  00000+0  33400-4 0  9990","line2":"2 66916  50.0058 228.7387 0001125 210.5757 149.5050 13.29322788 22992","mean_motion":13.29322788,"eccentricity":0.0001125,"inclination_deg":50.0058,"raan_deg":228.7387,"arg_perigee_deg":210.5757,"mean_anomaly_deg":149.505,"bstar":3.34e-5,"rev_number":2299,"period_min":108.32583425178,"perigee_km":1148.4718586299,"apogee_km":1150.1655361618,"semimajor_km":7527.4556973958,"source":"CELESTRAK","updated_at":"2026-05-25T13:38:06.593566Z"}}}